Weather History for KFDY - November, 2011

Change the Weather History Date:

Tuesday, November 29, 2011

  Actual Average Record
Temperature  
Mean Temperature 38 °F -  
Max Temperature 42 °F 40 °F 64 °F (1998)
Min Temperature 33 °F 29 °F 2 °F (1958)
Degree Days  
Heating Degree Days 28    
Moisture  
Dew Point 37 °F    
Average Humidity 92    
Maximum Humidity 96    
Minimum Humidity 87    
Precipitation  
Precipitation 0.70 in - - ()
Sea Level Pressure  
Sea Level Pressure 29.61 in    
Wind  
Wind Speed 16 mph (North)    
Max Wind Speed 28 mph    
Max Gust Speed 41 mph    
Visibility 3 miles    
Events Rain , Snow    
Averages and records for this station are not official NWS values.
T = Trace of Precipitation, MM = Missing Value Source: NWS Daily Summary

Daily Weather History Graph

Daily Weather History Graph

Search for Another Location

Airport or City:

Trip Planner

Search our weather history database for the weather conditions in past years. The results will help you decide how hot, cold, wet, or windy it might be!

Date:

Astronomy

Nov. 29, 2011 Rise Set
Actual Time 7:37 AM EST 5:07 PM EST
Civil Twilight 7:07 AM EST 5:38 PM EST
Nautical Twilight 6:33 AM EST 6:12 PM EST
Astronomical Twilight 6:00 AM EST 6:45 PM EST
Moon 11:23 AM EST (11/29) 10:01 PM EST (11/29)
Length of Visible Light 10h 30m
Length of Day
9h 29m
Waxing Crescent, 24% of the Moon is Illuminated
Nov 29
Waxing Crescent
Dec 2
First Quarter
Dec 10
Full
Dec 17
Last Quarter
Dec 24
New

Hourly Weather History & Observations

Time (EST) Temp. Windchill Dew Point Humidity Pressure Visibility Wind Dir Wind Speed Gust Speed Precip Events Conditions
12:53 AM 41.0 °F 32.2 °F 39.0 °F 93% 29.79 in 6.0 mi NE 18.4 mph - 0.05 in Rain Rain
2:53 AM 42.1 °F 33.6 °F 41.0 °F 96% 29.72 in 5.0 mi NE 18.4 mph 28.8 mph 0.05 in Rain Rain
3:53 AM 42.1 °F 33.1 °F 41.0 °F 96% 29.69 in 7.0 mi NE 20.7 mph 27.6 mph 0.07 in Rain Rain
4:53 AM 42.1 °F 33.3 °F 39.9 °F 92% 29.68 in 5.0 mi NE 19.6 mph 29.9 mph 0.06 in Rain Light Rain
5:53 AM 42.1 °F 32.1 °F 39.9 °F 92% 29.68 in 3.0 mi NNE 25.3 mph 32.2 mph 0.04 in Rain Heavy Rain
7:53 AM 42.1 °F 32.6 °F 39.9 °F 92% 29.66 in 2.5 mi NNE 23.0 mph 31.1 mph 0.00 in   Overcast
8:53 AM 42.1 °F 32.3 °F 39.9 °F 92% 29.64 in 2.0 mi NNE 24.2 mph 32.2 mph 0.00 in   Overcast
9:49 AM 42.8 °F 32.7 °F 39.2 °F 87% 29.62 in 1.8 mi NNE 27.6 mph 36.8 mph 0.00 in   Overcast
9:53 AM 42.1 °F 32.3 °F 39.9 °F 92% 29.62 in 1.8 mi NNE 24.2 mph 36.8 mph 0.00 in   Overcast
10:53 AM 42.1 °F 31.9 °F 39.9 °F 92% 29.60 in 1.8 mi NNE 26.5 mph 41.4 mph N/A   Overcast
11:41 AM 42.8 °F 32.7 °F 39.2 °F 87% 29.56 in 2.5 mi NNE 27.6 mph 35.7 mph N/A   Overcast
11:51 AM 42.8 °F 33.3 °F 39.2 °F 87% 29.55 in 3.0 mi NNE 24.2 mph 35.7 mph N/A   Overcast
11:53 AM 42.1 °F 32.3 °F 39.9 °F 92% 29.55 in 3.0 mi NNE 24.2 mph 35.7 mph 0.00 in Rain Light Rain
12:18 PM 42.8 °F 37.5 °F 39.2 °F 87% 29.58 in 1.8 mi East 9.2 mph 23.0 mph 0.00 in Rain Light Rain
12:33 PM 41.0 °F 34.7 °F 39.2 °F 93% 29.60 in 0.8 mi East 10.4 mph 17.3 mph 0.07 in Rain Heavy Rain
12:43 PM 41.0 °F 34.7 °F 39.2 °F 93% 29.60 in 1.0 mi ENE 10.4 mph 16.1 mph 0.10 in Rain Rain
12:53 PM 42.1 °F 38.4 °F 39.9 °F 92% 29.61 in 1.5 mi ENE 5.8 mph - 0.12 in Rain Heavy Rain
1:08 PM 42.8 °F 41.1 °F 39.2 °F 87% 29.60 in 2.5 mi NE 3.5 mph - 0.04 in Rain Rain
1:19 PM 42.8 °F - 39.2 °F 87% 29.60 in 1.5 mi Calm Calm - 0.05 in Rain Rain
1:27 PM 42.8 °F 41.1 °F 41.0 °F 93% 29.60 in 2.0 mi North 3.5 mph - 0.06 in Rain Rain
1:36 PM 42.8 °F - 41.0 °F 93% 29.59 in 3.0 mi Calm Calm - 0.07 in Rain Rain
1:53 PM 42.1 °F 37.1 °F 39.9 °F 92% 29.59 in 3.0 mi North 8.1 mph - 0.08 in Rain Light Rain
2:37 PM 41.0 °F 35.8 °F 39.2 °F 93% 29.57 in 6.0 mi North 8.1 mph - 0.01 in Rain Light Rain
2:48 PM 41.0 °F 36.4 °F 39.2 °F 93% 29.57 in 4.0 mi North 6.9 mph - 0.01 in Rain Rain
2:53 PM 41.0 °F 35.8 °F 39.0 °F 93% 29.57 in 2.5 mi North 8.1 mph - 0.03 in Rain Rain
3:02 PM 41.0 °F 35.8 °F 39.2 °F 93% 29.57 in 4.0 mi NNW 8.1 mph - 0.01 in Rain Rain
3:20 PM 39.2 °F 33.6 °F 37.4 °F 93% 29.57 in 4.0 mi NNW 8.1 mph - 0.03 in Rain Rain
3:53 PM 39.0 °F 31.4 °F 37.0 °F 93% 29.57 in 7.0 mi NNW 12.7 mph - 0.05 in Rain Light Rain
4:38 PM 33.8 °F 24.8 °F 32.0 °F 93% 29.58 in 1.8 mi WNW 12.7 mph - 0.06 in Snow Light Snow
4:53 PM 33.1 °F 24.9 °F 32.0 °F 96% 29.58 in 1.0 mi WNW 10.4 mph - 0.07 in Snow Light Snow
5:11 PM 33.8 °F 25.8 °F 32.0 °F 93% 29.58 in 2.0 mi West 10.4 mph - 0.00 in Snow Light Snow
5:28 PM 33.8 °F 25.8 °F 32.0 °F 93% 29.58 in 4.0 mi West 10.4 mph - 0.01 in Snow Light Snow
5:53 PM 33.1 °F 24.9 °F 32.0 °F 96% 29.59 in 2.0 mi West 10.4 mph - 0.02 in Snow Light Snow
5:58 PM 33.8 °F 25.8 °F 32.0 °F 93% 29.58 in 1.8 mi West 10.4 mph - 0.00 in Snow Light Snow
6:07 PM 33.8 °F 25.8 °F 32.0 °F 93% 29.58 in 2.0 mi West 10.4 mph - 0.01 in Snow Light Snow
6:33 PM 33.8 °F - 32.0 °F 93% 29.58 in 2.5 mi North - - 0.04 in Snow Light Snow
6:48 PM 33.8 °F - 32.0 °F 93% 29.58 in 3.0 mi North - - 0.04 in Snow Light Snow
6:53 PM 33.1 °F - 32.0 °F 96% 29.59 in 3.0 mi North - - 0.05 in Snow Light Snow
7:20 PM 33.8 °F - 32.0 °F 93% 29.58 in 4.0 mi North - - 0.00 in Snow Light Snow
7:53 PM 34.0 °F 25.0 °F 32.0 °F 92% 29.59 in 4.0 mi NW 12.7 mph 19.6 mph 0.00 in Snow Light Snow
8:53 PM 34.0 °F 23.8 °F 32.0 °F 92% 29.60 in 7.0 mi NNW 16.1 mph 27.6 mph 0.00 in Rain Light Rain
9:53 PM 34.0 °F 23.4 °F 33.1 °F 96% 29.62 in 4.0 mi NNW 17.3 mph 25.3 mph 0.00 in Snow Light Snow
10:53 PM 34.0 °F 24.6 °F 32.0 °F 92% 29.62 in 2.5 mi NNW 13.8 mph - 0.00 in Snow Light Snow
11:29 PM 33.8 °F 23.5 °F 32.0 °F 93% 29.62 in 3.0 mi NNW 16.1 mph 24.2 mph 0.01 in Snow Light Snow
11:53 PM 34.0 °F 24.2 °F 32.0 °F 92% 29.64 in 3.0 mi NNW 15.0 mph 24.2 mph 0.01 in Snow Light Snow